Flag for Congo Dem.Rep. Weather past 2 weeks in Bukavu, Congo Dem.Rep.

Now
75 °F

Scattered clouds.


Feels Like: 77 °F
Forecast: 54 / 72 °F
Wind: No wind

Location: Kigali Airport

Current Time: Apr 19, 2015 at 3:30:38 PM

Latest Report: Apr 19, 2015 at 3:00 PM


Visibility: N/A

Pressure: 30.07 "Hg

Humidity: 69%

Dew point: 64 °F

Location of BukavuLocation

Historic Weather in Bukavu — Graph

°F

Bukavu temperature yesterday

Maximum temperature yesterday: 77 °F (at 3:00 PM)
Minimum temperature yesterday: 63 °F (at 7:30 AM)
Average temperature yesterday: 67 °F

Past Weeks' High & Low Weather Summary

 TemperatureHumidityPressure
High84 °F (Apr 8, 3:00 PM)100% (Apr 4, 7:00 PM)30.27 "Hg (Apr 4, 7:00 PM)
Low61 °F (Apr 8, 3:30 AM)45% (Apr 8, 5:00 PM)29.98 "Hg (Apr 8, 4:00 PM)
Average70 °F87%30.13 "Hg
* Reported Apr 4 2:00 PM — Apr 19 2:30 PM, Bukavu, Weather by CustomWeather, © 2015

Note: Actual official high and low records may vary slightly from our data, if they occured in-between our weather recording intervals... More about our weather records

Advertising

Bukavu weather history for previous 24 hours

 ConditionsComfort  
Time TempWeatherWind HumidityBarometerVisibility
2:30 PM
Sun, Apr 19
77 °FScattered clouds.3 mph65%30.09 "HgN/A
2:00 PM79 °FScattered clouds.3 mph70%30.09 "HgN/A
1:30 PM75 °FScattered clouds.5 mph74%30.12 "HgN/A
1:00 PM77 °FScattered clouds.6 mph74%30.15 "HgN/A
12:30 PM75 °FScattered clouds.No wind74%30.15 "HgN/A
12:00 PM72 °FScattered clouds.6 mph94%30.18 "HgN/A
11:30 AM68 °FScattered clouds.6 mph100%30.21 "HgN/A
11:00 AM66 °FScattered clouds.3 mph100%30.21 "HgN/A
10:30 AM64 °FLight rain. Broken clouds.8 mph100%30.24 "HgN/A
10:00 AM64 °FBroken clouds.8 mph100%30.24 "HgN/A
9:30 AM66 °FBroken clouds.8 mph100%30.24 "HgN/A
9:00 AM68 °FBroken clouds.3 mph88%30.24 "HgN/A
8:30 AM66 °FBroken clouds.3 mph94%30.21 "HgN/A
7:30 AM63 °FPartly sunny.No wind100%30.21 "HgN/A
7:00 AM63 °FPartly sunny.No wind100%30.18 "HgN/A
6:30 AM63 °FPartly sunny.No wind100%30.18 "Hg5 mi
6:00 AM61 °FFog.No wind100%30.15 "Hg2 mi
5:30 AM61 °FFog.No wind100%30.15 "Hg0 mi
5:00 AM63 °FPassing clouds.5 mph100%30.15 "Hg0 mi
4:30 AM63 °FPassing clouds.No wind100%30.12 "HgN/A
4:00 AM63 °FPassing clouds.No wind100%30.15 "HgN/A
3:30 AM63 °FPassing clouds.No wind100%30.12 "HgN/A
3:00 AM63 °FPassing clouds.3 mph100%30.12 "HgN/A
2:30 AM63 °FPassing clouds.No wind100%30.12 "HgN/A
2:00 AM63 °FPassing clouds.3 mph100%30.12 "HgN/A
1:30 AM63 °FPassing clouds.5 mph100%30.15 "HgN/A
1:00 AM63 °FPassing clouds.5 mph100%30.15 "HgN/A
12:30 AM63 °FPassing clouds.No wind100%30.18 "HgN/A
12:00 AM63 °FPassing clouds.No wind100%30.18 "HgN/A
11:30 PM
Sat, Apr 18
64 °FPassing clouds.No wind100%30.18 "HgN/A
11:00 PM64 °FPassing clouds.3 mph100%30.18 "HgN/A
10:30 PM64 °FPassing clouds.3 mph100%30.18 "HgN/A
10:00 PM64 °FPassing clouds.No wind100%30.18 "HgN/A
9:30 PM66 °FPassing clouds.No wind94%30.18 "HgN/A
8:30 PM68 °FPassing clouds.No wind88%30.18 "HgN/A
8:00 PM68 °FPassing clouds.No wind88%30.15 "HgN/A
7:30 PM68 °FPassing clouds.No wind83%30.15 "HgN/A
7:00 PM70 °FPassing clouds.No wind78%30.12 "HgN/A
6:30 PM70 °FPassing clouds.3 mph78%30.12 "HgN/A
6:00 PM72 °FPassing clouds.5 mph73%30.12 "HgN/A
5:30 PM77 °FScattered clouds.3 mph61%30.09 "HgN/A
5:00 PM77 °FScattered clouds.3 mph65%30.09 "HgN/A
4:30 PM75 °FScattered clouds.No wind69%30.09 "HgN/A
4:00 PM75 °FScattered clouds.5 mph65%30.09 "HgN/A
3:30 PM75 °FScattered clouds.7 mph65%30.09 "HgN/A
3:00 PM77 °FPartly sunny.7 mph61%30.12 "HgN/A
Weather by CustomWeather, © 2015

See weather overviewHow to use our weather pages